| time (UTC) | temp C | wind direction | speed KPH | gust KPH | rain 1hr cm | rain 24hr cm | rain mn cm | humidity % | barometer mb |
| 20260506044328 | -17 | 0.0 | 0.0 | 0.00 | 0.00 | 0.00 | 1008.2 | ||
| 20260506043822 | -17 | 0.0 | 0.0 | 0.00 | 0.00 | 0.00 | 1008.2 | ||
| 20260506043318 | -17 | 0.0 | 0.0 | 0.00 | 0.00 | 0.00 | 1008.1 | ||
| 20260506042323 | 10 | 330 | 9.7 | 24.1 | 0.00 | 0.00 | 0.00 | 85 | 1008.1 |
| 20260506041819 | 10 | 5 | 6.4 | 17.7 | 0.00 | 0.00 | 0.00 | 85 | 1008.1 |
| 20260506041321 | 10 | 60 | 4.8 | 20.9 | 0.00 | 0.00 | 0.00 | 85 | 1008.2 |
| 20260506040831 | 10 | 193 | 8.0 | 20.9 | 0.00 | 0.00 | 0.00 | 85 | 1008.2 |
| 20260506040346 | 10 | 21 | 8.0 | 17.7 | 0.00 | 0.00 | 0.00 | 85 | 1008.2 |
| 20260506035817 | 10 | 314 | 8.0 | 22.5 | 0.00 | 0.00 | 0.00 | 85 | 1008.2 |
| 20260506035334 | 10 | 311 | 6.4 | 17.7 | 0.00 | 0.00 | 0.00 | 85 | 1008.2 |
| 20260506034855 | 10 | 15 | 9.7 | 16.1 | 0.00 | 0.00 | 0.00 | 85 | 1008.2 |
| 20260506034326 | 10 | 13 | 6.4 | 14.5 | 0.00 | 0.00 | 0.00 | 85 | 1008.3 |
| 20260506033839 | 10 | 341 | 9.7 | 14.5 | 0.00 | 0.00 | 0.00 | 85 | 1008.3 |
| 20260506033332 | 10 | 42 | 6.4 | 20.9 | 0.00 | 0.00 | 0.00 | 85 | 1008.3 |
| 20260506032831 | 10 | 10 | 9.7 | 20.9 | 0.00 | 0.00 | 0.00 | 85 | 1008.3 |
| 20260506032319 | 10 | 63 | 8.0 | 20.9 | 0.00 | 0.00 | 0.00 | 85 | 1008.3 |
| 20260506031822 | 10 | 338 | 9.7 | 19.3 | 0.00 | 0.00 | 0.00 | 84 | 1008.3 |
| 20260506031318 | 10 | 56 | 9.7 | 19.3 | 0.00 | 0.00 | 0.00 | 84 | 1008.3 |
| 20260506030813 | 10 | 333 | 3.2 | 20.9 | 0.00 | 0.00 | 0.00 | 84 | 1008.4 |
| 20260506030329 | 10 | 1 | 11.3 | 20.9 | 0.00 | 0.00 | 0.00 | 84 | 1008.4 |
| 20260506025820 | 10 | 316 | 6.4 | 19.3 | 0.00 | 0.00 | 0.00 | 84 | 1008.4 |
| 20260506025333 | 10 | 5 | 9.7 | 17.7 | 0.00 | 0.00 | 0.00 | 84 | 1008.4 |
| 20260506024829 | 10 | 328 | 8.0 | 12.9 | 0.00 | 0.00 | 0.00 | 84 | 1008.4 |
| 20260506024325 | 10 | 15 | 4.8 | 16.1 | 0.00 | 0.00 | 0.00 | 84 | 1008.5 |
| 20260506023820 | 10 | 328 | 6.4 | 12.9 | 0.00 | 0.00 | 0.00 | 84 | 1008.5 |
| 20260506023314 | 10 | 342 | 6.4 | 17.7 | 0.00 | 0.00 | 0.00 | 84 | 1008.5 |
| 20260506022816 | 10 | 358 | 9.7 | 17.7 | 0.00 | 0.00 | 0.00 | 84 | 1008.6 |
| 20260506022319 | 10 | 69 | 6.4 | 19.3 | 0.00 | 0.00 | 0.00 | 84 | 1008.6 |
| 20260506021817 | 10 | 319 | 8.0 | 16.1 | 0.00 | 0.00 | 0.00 | 84 | 1008.6 |
| 20260506021340 | 10 | 356 | 6.4 | 14.5 | 0.00 | 0.00 | 0.00 | 84 | 1008.7 |
| 20260506020824 | 10 | 347 | 8.0 | 14.5 | 0.00 | 0.00 | 0.00 | 83 | 1008.6 |
| 20260506020319 | 10 | 356 | 9.7 | 16.1 | 0.00 | 0.00 | 0.00 | 83 | 1008.7 |
| 20260506015832 | 10 | 328 | 6.4 | 17.7 | 0.00 | 0.00 | 0.00 | 83 | 1008.7 |
| 20260506015324 | 10 | 321 | 8.0 | 17.7 | 0.00 | 0.00 | 0.00 | 83 | 1008.7 |
| 20260506014820 | 10 | 8 | 8.0 | 17.7 | 0.00 | 0.00 | 0.00 | 83 | 1008.8 |
| 20260506014314 | 10 | 341 | 8.0 | 17.7 | 0.00 | 0.00 | 0.00 | 83 | 1008.8 |
| 20260506013824 | 10 | 355 | 9.7 | 16.1 | 0.00 | 0.00 | 0.00 | 82 | 1008.8 |
| 20260506013326 | 10 | 30 | 8.0 | 16.1 | 0.00 | 0.00 | 0.00 | 82 | 1008.8 |
| 20260506012821 | 10 | 54 | 4.8 | 14.5 | 0.00 | 0.00 | 0.00 | 82 | 1008.8 |
| 20260506012334 | 10 | 352 | 8.0 | 14.5 | 0.00 | 0.00 | 0.00 | 82 | 1008.8 |
| 20260506011828 | 10 | 330 | 6.4 | 19.3 | 0.00 | 0.00 | 0.00 | 82 | 1008.8 |
| 20260506011331 | 10 | 345 | 11.3 | 19.3 | 0.00 | 0.00 | 0.00 | 82 | 1008.8 |
| 20260506010816 | 10 | 344 | 4.8 | 16.1 | 0.00 | 0.00 | 0.00 | 82 | 1008.8 |
| 20260506010338 | 10 | 117 | 9.7 | 19.3 | 0.00 | 0.00 | 0.00 | 82 | 1008.8 |
| 20260506005851 | 10 | 13 | 6.4 | 19.3 | 0.00 | 0.00 | 0.00 | 82 | 1008.9 |
| 20260506005334 | 10 | 321 | 8.0 | 17.7 | 0.00 | 0.00 | 0.00 | 82 | 1008.9 |
| 20260506004814 | 10 | 27 | 8.0 | 14.5 | 0.00 | 0.00 | 0.00 | 82 | 1008.9 |
| 20260506004335 | 10 | 27 | 6.4 | 19.3 | 0.00 | 0.00 | 0.00 | 82 | 1009.0 |
| 20260506003820 | 10 | 356 | 8.0 | 19.3 | 0.00 | 0.00 | 0.00 | 82 | 1009.0 |
| 20260506003316 | 10 | 314 | 4.8 | 16.1 | 0.00 | 0.00 | 0.00 | 82 | 1009.0 |
| 20260506002817 | 10 | 224 | 6.4 | 16.1 | 0.00 | 0.00 | 0.00 | 82 | 1009.1 |
| 20260506002331 | 10 | 333 | 6.4 | 20.9 | 0.00 | 0.00 | 0.00 | 82 | 1009.1 |
| 20260506001826 | 10 | 314 | 11.3 | 20.9 | 0.00 | 0.00 | 0.00 | 82 | 1009.2 |
| 20260506001320 | 10 | 347 | 8.0 | 19.3 | 0.00 | 0.00 | 0.00 | 82 | 1009.2 |
| 20260506000814 | 10 | 159 | 9.7 | 20.9 | 0.00 | 0.00 | 0.00 | 81 | 1009.2 |
| 20260506000337 | 10 | 33 | 9.7 | 20.9 | 0.00 | 0.00 | 0.00 | 81 | 1009.2 |
| 20260505235822 | 10 | 328 | 8.0 | 19.3 | 0.00 | 0.00 | 0.00 | 82 | 1009.2 |
| 20260505235316 | 10 | 341 | 9.7 | 20.9 | 0.00 | 0.00 | 0.00 | 82 | 1009.2 |
| 20260505234859 | 10 | 338 | 4.8 | 22.5 | 0.00 | 0.00 | 0.00 | 82 | 1009.2 |
| 20260505234313 | 10 | 16 | 14.5 | 24.1 | 0.00 | 0.00 | 0.00 | 82 | 1009.3 |
| 20260505233818 | 10 | 25 | 9.7 | 24.1 | 0.00 | 0.00 | 0.00 | 82 | 1009.3 |
| 20260505233321 | 10 | 46 | 6.4 | 17.7 | 0.00 | 0.00 | 0.00 | 82 | 1009.3 |
| 20260505232330 | 10 | 360 | 9.7 | 17.7 | 0.00 | 0.00 | 0.00 | 81 | 1009.3 |
| 20260505231833 | 10 | 48 | 6.4 | 17.7 | 0.00 | 0.00 | 0.00 | 81 | 1009.4 |
| 20260505231329 | 10 | 315 | 8.0 | 20.9 | 0.00 | 0.00 | 0.00 | 81 | 1009.4 |
| 20260505230843 | 11 | 27 | 6.4 | 19.3 | 0.00 | 0.00 | 0.00 | 81 | 1009.4 |
| 20260505230318 | 11 | 330 | 4.8 | 16.1 | 0.00 | 0.00 | 0.00 | 81 | 1009.4 |
| 20260505225812 | 11 | 300 | 6.4 | 19.3 | 0.00 | 0.00 | 0.00 | 81 | 1009.4 |
| 20260505225317 | 11 | 6 | 12.9 | 19.3 | 0.00 | 0.00 | 0.00 | 81 | 1009.5 |
| 20260505224819 | 11 | 49 | 9.7 | 19.3 | 0.00 | 0.00 | 0.00 | 81 | 1009.5 |
| 20260505224314 | 11 | 333 | 9.7 | 17.7 | 0.00 | 0.00 | 0.00 | 81 | 1009.5 |
| 20260505223822 | 11 | 61 | 8.0 | 17.7 | 0.00 | 0.00 | 0.00 | 81 | 1009.6 |
| 20260505223317 | 11 | 6 | 6.4 | 16.1 | 0.00 | 0.00 | 0.00 | 81 | 1009.6 |
| 20260505222818 | 11 | 53 | 6.4 | 16.1 | 0.00 | 0.00 | 0.00 | 81 | 1009.6 |
| 20260505222324 | 11 | 84 | 9.7 | 17.7 | 0.00 | 0.00 | 0.00 | 81 | 1009.6 |
| 20260505221826 | 11 | 13 | 9.7 | 17.7 | 0.00 | 0.00 | 0.00 | 81 | 1009.7 |
| 20260505221320 | 11 | 33 | 6.4 | 17.7 | 0.00 | 0.00 | 0.00 | 81 | 1009.7 |
| 20260505220814 | 11 | 356 | 11.3 | 17.7 | 0.00 | 0.00 | 0.00 | 81 | 1009.7 |
| 20260505220335 | 11 | 333 | 6.4 | 16.1 | 0.00 | 0.00 | 0.00 | 81 | 1009.7 |
| 20260505215818 | 11 | 25 | 8.0 | 17.7 | 0.00 | 0.00 | 0.00 | 81 | 1009.7 |
| 20260505215332 | 11 | 33 | 6.4 | 17.7 | 0.00 | 0.00 | 0.00 | 81 | 1009.7 |
| 20260505214824 | 11 | 40 | 11.3 | 20.9 | 0.00 | 0.00 | 0.00 | 81 | 1009.7 |
| 20260505214328 | 11 | 25 | 8.0 | 20.9 | 0.00 | 0.00 | 0.00 | 81 | 1009.7 |
| 20260505213856 | 11 | 34 | 11.3 | 20.9 | 0.00 | 0.00 | 0.00 | 81 | 1009.8 |
| 20260505213327 | 11 | 76 | 4.8 | 20.9 | 0.00 | 0.00 | 0.00 | 81 | 1009.7 |
| 20260505212849 | 11 | 30 | 9.7 | 20.9 | 0.00 | 0.00 | 0.00 | 81 | 1009.8 |
| 20260505212314 | 11 | 360 | 11.3 | 19.3 | 0.00 | 0.00 | 0.00 | 80 | 1009.8 |
| 20260505211815 | 11 | 275 | 8.0 | 22.5 | 0.00 | 0.00 | 0.00 | 80 | 1009.7 |
| 20260505211329 | 11 | 25 | 9.7 | 24.1 | 0.00 | 0.00 | 0.00 | 80 | 1009.8 |
| 20260505210821 | 11 | 51 | 6.4 | 24.1 | 0.00 | 0.00 | 0.00 | 80 | 1009.8 |
| 20260505210314 | 11 | 99 | 8.0 | 19.3 | 0.00 | 0.00 | 0.00 | 80 | 1009.7 |
| 20260505205824 | 11 | 30 | 8.0 | 20.9 | 0.00 | 0.00 | 0.00 | 80 | 1009.8 |
| 20260505205334 | 11 | 53 | 11.3 | 22.5 | 0.00 | 0.00 | 0.00 | 79 | 1009.8 |
| 20260505204851 | 12 | 84 | 11.3 | 22.5 | 0.00 | 0.00 | 0.00 | 79 | 1009.8 |
| 20260505204324 | 12 | 352 | 11.3 | 25.7 | 0.00 | 0.00 | 0.00 | 79 | 1009.8 |
| 20260505203816 | 12 | 72 | 8.0 | 25.7 | 0.00 | 0.00 | 0.00 | 79 | 1009.8 |
| 20260505203357 | 12 | 42 | 9.7 | 24.1 | 0.00 | 0.00 | 0.00 | 79 | 1009.7 |
| 20260505202826 | 12 | 53 | 8.0 | 25.7 | 0.00 | 0.00 | 0.00 | 79 | 1009.7 |
| 20260505202320 | 12 | 40 | 11.3 | 25.7 | 0.00 | 0.00 | 0.00 | 79 | 1009.7 |
| 20260505201841 | 12 | 35 | 11.3 | 29.0 | 0.00 | 0.00 | 0.00 | 78 | 1009.7 |
| 20260505200820 | 12 | 290 | 11.3 | 25.7 | 0.00 | 0.00 | 0.00 | 79 | 1009.5 |
| 20260505200313 | 12 | 360 | 8.0 | 20.9 | 0.00 | 0.00 | 0.00 | 80 | 1009.5 |
| 20260505195826 | 12 | 8 | 9.7 | 20.9 | 0.00 | 0.00 | 0.00 | 80 | 1009.5 |
| 20260505195314 | 12 | 339 | 3.2 | 12.9 | 0.00 | 0.00 | 0.00 | 80 | 1009.5 |
| 20260505194814 | 12 | 358 | 4.8 | 12.9 | 0.00 | 0.00 | 0.00 | 80 | 1009.5 |
| 20260505194358 | 12 | 309 | 6.4 | 12.9 | 0.00 | 0.00 | 0.00 | 80 | 1009.5 |
| 20260505193824 | 12 | 25 | 8.0 | 12.9 | 0.00 | 0.00 | 0.00 | 80 | 1009.4 |
| 20260505193324 | 12 | 67 | 6.4 | 12.9 | 0.00 | 0.00 | 0.00 | 80 | 1009.3 |
| 20260505192819 | 12 | 27 | 6.4 | 16.1 | 0.00 | 0.00 | 0.00 | 80 | 1009.3 |
| 20260505192332 | 12 | 30 | 4.8 | 19.3 | 0.00 | 0.00 | 0.00 | 80 | 1009.2 |
| 20260505191827 | 13 | 68 | 8.0 | 19.3 | 0.00 | 0.00 | 0.00 | 79 | 1009.1 |
| 20260505191349 | 13 | 6 | 6.4 | 16.1 | 0.00 | 0.00 | 0.00 | 80 | 1009.1 |
| 20260505190841 | 13 | 300 | 9.7 | 17.7 | 0.00 | 0.00 | 0.00 | 79 | 1009.0 |
| 20260505190313 | 13 | 341 | 6.4 | 17.7 | 0.00 | 0.00 | 0.00 | 80 | 1009.0 |
| 20260505185823 | 13 | 40 | 6.4 | 16.1 | 0.00 | 0.00 | 0.00 | 80 | 1009.0 |
| 20260505185315 | 13 | 34 | 6.4 | 16.1 | 0.00 | 0.00 | 0.00 | 80 | 1009.0 |
| 20260505184827 | 13 | 1 | 4.8 | 16.1 | 0.00 | 0.00 | 0.00 | 80 | 1009.0 |
| 20260505184329 | 13 | 34 | 8.0 | 20.9 | 0.00 | 0.00 | 0.00 | 79 | 1008.9 |
| 20260505183816 | 13 | 3 | 6.4 | 19.3 | 0.00 | 0.00 | 0.00 | 80 | 1008.9 |
| 20260505183338 | 13 | 48 | 11.3 | 19.3 | 0.00 | 0.00 | 0.00 | 80 | 1008.9 |
| 20260505182829 | 13 | 66 | 6.4 | 17.7 | 0.00 | 0.00 | 0.00 | 81 | 1008.9 |
| 20260505182322 | 13 | 69 | 6.4 | 17.7 | 0.00 | 0.00 | 0.00 | 81 | 1008.9 |
| 20260505181817 | 13 | 269 | 8.0 | 14.5 | 0.00 | 0.00 | 0.00 | 81 | 1008.9 |
| 20260505181320 | 13 | 6 | 6.4 | 14.5 | 0.00 | 0.00 | 0.00 | 81 | 1008.9 |
| 20260505180827 | 13 | 325 | 4.8 | 16.1 | 0.00 | 0.00 | 0.00 | 81 | 1008.9 |
| 20260505180349 | 13 | 356 | 8.0 | 16.1 | 0.00 | 0.00 | 0.00 | 81 | 1008.9 |
| 20260505175820 | 13 | 115 | 1.6 | 4.8 | 0.00 | 0.00 | 0.00 | 82 | 1008.9 |
| 20260505175324 | 13 | 61 | 0.0 | 1.6 | 0.00 | 0.00 | 0.00 | 83 | 1008.9 |
| 20260505174844 | 13 | 61 | 0.0 | 1.6 | 0.00 | 0.00 | 0.00 | 83 | 1008.9 |
| 20260505174319 | 13 | 61 | 0.0 | 1.6 | 0.00 | 0.00 | 0.00 | 82 | 1008.9 |
| 20260505173815 | 13 | 13 | 0.0 | 9.7 | 0.00 | 0.00 | 0.00 | 82 | 1008.9 |
| 20260505173336 | 13 | 13 | 1.6 | 9.7 | 0.00 | 0.00 | 0.00 | 81 | 1008.8 |
| 20260505172829 | 13 | 19 | 3.2 | 12.9 | 0.00 | 0.00 | 0.00 | 80 | 1008.8 |
| 20260505172316 | 13 | 49 | 4.8 | 12.9 | 0.00 | 0.00 | 0.00 | 81 | 1008.8 |
| 20260505171814 | 13 | 39 | 4.8 | 11.3 | 0.00 | 0.00 | 0.00 | 81 | 1008.9 |
| 20260505171335 | 13 | 33 | 4.8 | 12.9 | 0.00 | 0.00 | 0.00 | 81 | 1008.9 |
| 20260505170820 | 13 | 8 | 4.8 | 12.9 | 0.00 | 0.00 | 0.00 | 81 | 1008.9 |
| 20260505170313 | 13 | 1 | 4.8 | 14.5 | 0.00 | 0.00 | 0.00 | 81 | 1008.8 |
| 20260505165823 | 13 | 41 | 6.4 | 12.9 | 0.00 | 0.00 | 0.00 | 81 | 1008.9 |
| 20260505165318 | 13 | 30 | 6.4 | 12.9 | 0.00 | 0.00 | 0.00 | 80 | 1008.9 |
| 20260505164813 | 13 | 67 | 4.8 | 12.9 | 0.00 | 0.00 | 0.00 | 81 | 1009.0 |
| 20260505164335 | 13 | 30 | 6.4 | 14.5 | 0.00 | 0.00 | 0.00 | 81 | 1009.0 |
| 20260505163819 | 13 | 330 | 4.8 | 14.5 | 0.00 | 0.00 | 0.00 | 81 | 1009.1 |
| 20260505163321 | 13 | 34 | 4.8 | 16.1 | 0.00 | 0.00 | 0.00 | 81 | 1009.1 |
| 20260505162817 | 13 | 61 | 3.2 | 17.7 | 0.00 | 0.00 | 0.00 | 81 | 1009.0 |
| 20260505162333 | 13 | 27 | 8.0 | 17.7 | 0.00 | 0.00 | 0.00 | 81 | 1009.1 |
| 20260505161825 | 13 | 319 | 6.4 | 11.3 | 0.00 | 0.00 | 0.00 | 81 | 1009.1 |
| 20260505161327 | 13 | 330 | 8.0 | 14.5 | 0.00 | 0.00 | 0.00 | 81 | 1009.2 |
| 20260505160842 | 13 | 64 | 8.0 | 14.5 | 0.00 | 0.00 | 0.00 | 81 | 1009.2 |
| 20260505160315 | 13 | 37 | 4.8 | 14.5 | 0.00 | 0.00 | 0.00 | 82 | 1009.2 |
| 20260505153322 | 13 | 69 | 8.0 | 12.9 | 0.00 | 0.00 | 0.00 | 83 | 1009.4 |
| 20260505152815 | 13 | 30 | 3.2 | 12.9 | 0.00 | 0.00 | 0.00 | 84 | 1009.4 |
| 20260505152326 | 13 | 21 | 4.8 | 12.9 | 0.00 | 0.00 | 0.00 | 84 | 1009.5 |
| 20260505151843 | 12 | 67 | 6.4 | 12.9 | 0.00 | 0.00 | 0.00 | 84 | 1009.5 |
| 20260505151317 | 12 | 64 | 1.6 | 11.3 | 0.00 | 0.00 | 0.00 | 84 | 1009.6 |
| 20260505150811 | 13 | 51 | 6.4 | 11.3 | 0.00 | 0.00 | 0.00 | 84 | 1009.6 |
| 20260505150355 | 13 | 21 | 6.4 | 12.9 | 0.00 | 0.00 | 0.00 | 84 | 1009.6 |
| 20260505140317 | 12 | 27 | 4.8 | 9.7 | 0.00 | 0.00 | 0.00 | 84 | 1010.0 |
| 20260505124816 | 12 | 353 | 3.2 | 9.7 | 0.00 | 0.00 | 0.00 | 85 | 1010.3 |
| 20260505124337 | 12 | 13 | 6.4 | 9.7 | 0.00 | 0.00 | 0.00 | 85 | 1010.3 |
| 20260505123822 | 12 | 356 | 4.8 | 11.3 | 0.00 | 0.00 | 0.00 | 85 | 1010.3 |
| 20260505123338 | 12 | 30 | 3.2 | 11.3 | 0.00 | 0.00 | 0.00 | 86 | 1010.3 |
| 20260505122813 | 12 | 360 | 6.4 | 14.5 | 0.00 | 0.00 | 0.00 | 86 | 1010.3 |
| 20260505122328 | 12 | 100 | 9.7 | 14.5 | 0.00 | 0.00 | 0.00 | 86 | 1010.4 |
| 20260505121848 | 12 | 37 | 6.4 | 17.7 | 0.00 | 0.00 | 0.00 | 86 | 1010.4 |
| 20260505121321 | 12 | 21 | 8.0 | 17.7 | 0.00 | 0.00 | 0.00 | 86 | 1010.4 |
| 20260505120835 | 12 | 33 | 8.0 | 17.7 | 0.00 | 0.00 | 0.00 | 86 | 1010.5 |
| 20260505120334 | 12 | 121 | 8.0 | 19.3 | 0.00 | 0.00 | 0.00 | 86 | 1010.5 |
| 20260505115819 | 12 | 79 | 11.3 | 17.7 | 0.00 | 0.00 | 0.00 | 86 | 1010.5 |
| 20260505115313 | 12 | 360 | 4.8 | 16.1 | 0.00 | 0.00 | 0.00 | 86 | 1010.5 |
| 20260505114823 | 11 | 21 | 8.0 | 16.1 | 0.00 | 0.00 | 0.00 | 86 | 1010.5 |
| 20260505114324 | 11 | 15 | 6.4 | 16.1 | 0.00 | 0.00 | 0.00 | 86 | 1010.6 |
| 20260505113827 | 11 | 55 | 6.4 | 19.3 | 0.00 | 0.00 | 0.00 | 87 | 1010.6 |
| 20260505113314 | 11 | 30 | 8.0 | 19.3 | 0.00 | 0.00 | 0.00 | 87 | 1010.7 |
| 20260505112822 | 11 | 75 | 8.0 | 14.5 | 0.00 | 0.00 | 0.00 | 87 | 1010.7 |
| 20260505112318 | 11 | 335 | 8.0 | 14.5 | 0.00 | 0.00 | 0.00 | 87 | 1010.7 |
| 20260505111841 | 11 | 44 | 6.4 | 14.5 | 0.00 | 0.00 | 0.00 | 87 | 1010.7 |
| 20260505111315 | 11 | 37 | 8.0 | 16.1 | 0.00 | 0.00 | 0.00 | 87 | 1010.7 |
| 20260505110828 | 11 | 360 | 8.0 | 16.1 | 0.00 | 0.00 | 0.00 | 87 | 1010.7 |
| 20260505110320 | 11 | 347 | 8.0 | 17.7 | 0.00 | 0.00 | 0.00 | 87 | 1010.7 |
| 20260505101815 | 11 | 32 | 8.0 | 20.9 | 0.00 | 0.00 | 0.00 | 87 | 1010.8 |
| 20260505101311 | 11 | 45 | 9.7 | 20.9 | 0.00 | 0.00 | 0.00 | 87 | 1010.8 |
| 20260505100824 | 11 | 328 | 9.7 | 19.3 | 0.00 | 0.00 | 0.00 | 88 | 1010.8 |
| 20260505100319 | 11 | 347 | 8.0 | 19.3 | 0.00 | 0.00 | 0.00 | 88 | 1010.9 |
| 20260505095830 | 11 | 21 | 9.7 | 20.9 | 0.00 | 0.00 | 0.00 | 89 | 1010.8 |
| 20260505095325 | 11 | 341 | 11.3 | 20.9 | 0.00 | 0.00 | 0.00 | 89 | 1010.8 |
| 20260505094817 | 11 | 8 | 9.7 | 14.5 | 0.00 | 0.00 | 0.00 | 89 | 1010.8 |
| 20260505094314 | 11 | 353 | 8.0 | 16.1 | 0.00 | 0.00 | 0.00 | 89 | 1010.8 |
| 20260505093846 | 11 | 3 | 8.0 | 17.7 | 0.00 | 0.00 | 0.00 | 89 | 1010.8 |
| 20260505093327 | 11 | 358 | 4.8 | 17.7 | 0.00 | 0.00 | 0.00 | 89 | 1010.8 |
| 20260505092819 | 11 | 53 | 8.0 | 17.7 | 0.00 | 0.00 | 0.00 | 89 | 1010.9 |
| 20260505092315 | 11 | 11 | 9.7 | 17.7 | 0.00 | 0.00 | 0.00 | 90 | 1010.9 |
| 20260505091837 | 11 | 49 | 4.8 | 16.1 | 0.00 | 0.00 | 0.00 | 90 | 1010.9 |
| 20260505091330 | 11 | 39 | 4.8 | 19.3 | 0.00 | 0.00 | 0.00 | 90 | 1011.0 |
| 20260505090816 | 11 | 27 | 11.3 | 20.9 | 0.00 | 0.00 | 0.00 | 90 | 1011.1 |
| 20260505090318 | 11 | 67 | 4.8 | 16.1 | 0.00 | 0.00 | 0.00 | 89 | 1011.1 |
| 20260505085844 | 11 | 31 | 6.4 | 16.1 | 0.00 | 0.00 | 0.00 | 89 | 1011.1 |
| 20260505085337 | 11 | 72 | 4.8 | 19.3 | 0.00 | 0.00 | 0.00 | 89 | 1011.1 |
| 20260505084829 | 11 | 314 | 9.7 | 19.3 | 0.00 | 0.00 | 0.00 | 89 | 1011.1 |
| 20260505084321 | 11 | 52 | 8.0 | 16.1 | 0.00 | 0.00 | 0.00 | 90 | 1011.1 |
| 20260505083816 | 11 | 357 | 6.4 | 14.5 | 0.00 | 0.00 | 0.00 | 90 | 1011.0 |
| 20260505083334 | 11 | 335 | 6.4 | 17.7 | 0.00 | 0.00 | 0.00 | 90 | 1011.0 |
| 20260505082826 | 11 | 63 | 6.4 | 17.7 | 0.00 | 0.00 | 0.00 | 90 | 1011.0 |
| 20260505082338 | 11 | 332 | 4.8 | 19.3 | 0.00 | 0.00 | 0.00 | 90 | 1011.0 |
| 20260505081820 | 11 | 6 | 9.7 | 19.3 | 0.00 | 0.00 | 0.00 | 90 | 1011.0 |
| 20260505081359 | 11 | 67 | 4.8 | 17.7 | 0.00 | 0.00 | 0.00 | 90 | 1011.0 |
| 20260505080825 | 11 | 82 | 6.4 | 11.3 | 0.00 | 0.00 | 0.00 | 90 | 1011.0 |
| 20260505080324 | 11 | 323 | 3.2 | 14.5 | 0.00 | 0.00 | 0.00 | 90 | 1011.0 |
| 20260505075826 | 11 | 30 | 6.4 | 14.5 | 0.00 | 0.00 | 0.00 | 90 | 1011.0 |
| 20260505075321 | 11 | 357 | 4.8 | 12.9 | 0.00 | 0.00 | 0.00 | 90 | 1011.1 |
| 20260505074816 | 11 | 30 | 4.8 | 14.5 | 0.00 | 0.00 | 0.00 | 90 | 1011.1 |
| 20260505074318 | 11 | 302 | 4.8 | 16.1 | 0.00 | 0.00 | 0.00 | 90 | 1011.2 |
| 20260505073825 | 11 | 25 | 11.3 | 16.1 | 0.00 | 0.00 | 0.00 | 90 | 1011.1 |
| 20260505073327 | 11 | 15 | 3.2 | 8.0 | 0.00 | 0.00 | 0.00 | 90 | 1011.1 |
| 20260505072822 | 11 | 21 | 3.2 | 16.1 | 0.00 | 0.00 | 0.00 | 90 | 1011.1 |
| 20260505072317 | 11 | 360 | 6.4 | 11.3 | 0.00 | 0.00 | 0.00 | 90 | 1011.1 |
| 20260505071813 | 11 | 49 | 3.2 | 11.3 | 0.00 | 0.00 | 0.00 | 90 | 1011.0 |
| 20260505071317 | 11 | 30 | 6.4 | 16.1 | 0.00 | 0.00 | 0.00 | 90 | 1011.0 |
| 20260505070821 | 10 | 349 | 3.2 | 16.1 | 0.00 | 0.00 | 0.00 | 90 | 1010.9 |
| 20260505070323 | 10 | 46 | 6.4 | 20.9 | 0.00 | 0.00 | 0.00 | 90 | 1010.9 |
| 20260505065853 | 10 | 77 | 9.7 | 20.9 | 0.00 | 0.00 | 0.00 | 90 | 1011.0 |
| 20260505065320 | 10 | 51 | 8.0 | 17.7 | 0.00 | 0.00 | 0.00 | 90 | 1011.0 |
| 20260505064822 | 10 | 341 | 6.4 | 17.7 | 0.00 | 0.00 | 0.00 | 90 | 1011.0 |
| 20260505064337 | 10 | 351 | 4.8 | 16.1 | 0.00 | 0.00 | 0.00 | 90 | 1011.1 |
| 20260505063829 | 10 | 314 | 9.7 | 17.7 | 0.00 | 0.00 | 0.00 | 90 | 1011.1 |
| 20260505063333 | 11 | 342 | 6.4 | 12.9 | 0.00 | 0.00 | 0.00 | 90 | 1011.2 |
| 20260505062826 | 11 | 351 | 4.8 | 16.1 | 0.00 | 0.00 | 0.00 | 90 | 1011.2 |
| 20260505062340 | 11 | 339 | 9.7 | 16.1 | 0.00 | 0.00 | 0.00 | 89 | 1011.3 |
| 20260505061815 | 11 | 330 | 1.6 | 12.9 | 0.00 | 0.00 | 0.00 | 89 | 1011.3 |
| 20260505061317 | 11 | 344 | 6.4 | 12.9 | 0.00 | 0.00 | 0.00 | 89 | 1011.3 |
| 20260505060848 | 11 | 55 | 6.4 | 14.5 | 0.00 | 0.00 | 0.00 | 89 | 1011.3 |
| 20260505060321 | 11 | 335 | 3.2 | 12.9 | 0.00 | 0.00 | 0.00 | 89 | 1011.3 |
| 20260505055834 | 11 | 333 | 4.8 | 12.9 | 0.00 | 0.00 | 0.00 | 89 | 1011.3 |
| 20260505055322 | 11 | 3 | 9.7 | 12.9 | 0.00 | 0.00 | 0.00 | 89 | 1011.3 |
| 20260505054823 | 11 | 335 | 4.8 | 16.1 | 0.00 | 0.00 | 0.00 | 89 | 1011.3 |
| 20260505054318 | 11 | 330 | 8.0 | 16.1 | 0.00 | 0.00 | 0.00 | 89 | 1011.2 |
| 20260505053834 | 11 | 22 | 6.4 | 19.3 | 0.00 | 0.00 | 0.00 | 89 | 1011.2 |
| 20260505053356 | 11 | 333 | 8.0 | 19.3 | 0.00 | 0.00 | 0.00 | 89 | 1011.1 |
| 20260505052829 | 11 | 11 | 6.4 | 17.7 | 0.00 | 0.00 | 0.00 | 89 | 1011.1 |
| 20260505052317 | 11 | 30 | 9.7 | 19.3 | 0.00 | 0.00 | 0.00 | 89 | 1011.1 |
| 20260505051820 | 11 | 335 | 3.2 | 12.9 | 0.00 | 0.00 | 0.00 | 89 | 1011.2 |
| 20260505051342 | 11 | 335 | 8.0 | 14.5 | 0.00 | 0.00 | 0.00 | 89 | 1011.1 |
| 20260505050834 | 11 | 359 | 3.2 | 14.5 | 0.00 | 0.00 | 0.00 | 89 | 1011.1 |
| 20260505050347 | 11 | 5 | 3.2 | 12.9 | 0.00 | 0.00 | 0.00 | 89 | 1011.2 |